Showing default

NAOS, 65317

Orbit data source: Space-Track

NAOS, 65317 is a Luxembourger payload satellite in SSO that was launched on Tue, 26 Aug 2025 UTC via an FALCON 9 launch vehicle from the Air Force Western Test Range (AFWTR). Payload-class satellites include a variety of spacecraft equipped with specific instruments for various scientific and technological missions. These include communications satellites like Starlink; space stations such as the ISS; scientific satellites like the Hubble; Earth observation satellites from companies like Planet Labs, Umbra, and HawkEye 360; GPS; miniature CubeSats for education and research; and military/defense satellites.

Loading next visibility...
Identifier
65317, 2025-188C
Orbit
SSO
Country
Flag of LULU / LUXE
Related business
Manufacturer
OHB-I
Mission
Operational Commercial Imaging
Bus & Motor
NAOS, Unknown motor
Mass
645 kg wet, 645 kg dry
Launch date (UTC)
2025-08-26 (10 months ago)
Launch vehicle
FALCON 9
Launch site
Air Force Western Test Range (AFWTR)
Object type
Payload
Rocket body
Debris
Shape & HBR
Hex Cyl + 2 Pan, 14.5 m
Radar Cross Section
9.075 m², Large (>1 m²)

Expand to show TLE details & history
Last TLE update: 10 hours ago

TLE from 10 hours ago
0 NAOS
1 65317U 25188C   26171.44706775  .00008128  00000-0  21536-3 0  9992
2 65317  97.2028 246.7073 0000819 107.8847 252.2488 15.38601782 45768
Epoch: 2026-06-20T10:43Z
TLE epoch observation values (Epoch: 2026-06-20T10:43:46.653Z)
Latitude
-0.00004°
Longitude
177.10136°
Altitude
453.535 km
Speed
7.64 km/s
True Right ascension
16h 26m 49s
True Declination
0° 00' 00"
Sunlit
Object was in full shadow at epoch
Visualization orbit readout
Latitude
Unknown
Longitude
Unknown
Altitude
Unknown
Speed
Unknown
Apparent Right ascension
Unknown
Apparent Declination
Unknown
Sunlit
N/A
Visualization observer readout
Local Sidereal Time
07:22:48
Azimuth
Unknown
Elevation
Unknown
Doppler factor
Unknown
Orbital elements
Apogee altitude
447.735 km
Perigee altitude
446.617 km
Semi-major axis
6,825.313 km
Eccentricity
0.00008
Inclination
97.2028°
RAAN
246.7073°
Arg. of periapsis
107.8847°
True anomaly
252.23986°
Mean anomaly
252.2488°
Eccentric anomaly
252.24433°
Mean motion
3.8491 °/min
Orbital period
93.53 mins
BSTAR
0.00021536
Loading maneuver chart data...
Computing Atmospheric mass density...
Loading historical data...
Loading historical data...
Loading historical data...
Loading historical data...
Loading historical data...
Loading historical data...
Loading historical data...

Documentation

Showing up to 5 results
|